CW0009 Weather Reports


time (UTC)temp
F
wind
direction
speed
knots
gust
knots
rain 1hr
in
rain 24hr
in
rain mn
in
humidity
%
barometer
mb
20181122113013 42 90 4.3 6.1 0.00 0.00 0.00 74 1018.0
20181122112014 42 65 5.2 6.1 0.00 0.00 0.00 75 1018.0
20181122111015 41 70 2.6 5.2 0.00 0.00 0.00 75 1019.0
20181122110010 41 90 0.9 5.2 0.00 0.00 0.00 76 1019.0
20181122105011 40 90 0.9 2.6 0.00 0.00 0.00 77 1019.0
20181122104011 40 90 0.9 2.6 0.00 0.00 0.00 76 1018.0
20181122103013 40 90 0.9 0.9 0.00 0.00 0.00 76 1019.0
20181122102012 39 90 1.7 2.6 0.00 0.00 0.00 77 1019.0
20181122101012 39 90 0.9 4.3 0.00 0.00 0.00 78 1019.0
20181122100011 39 90 0.0 0.9 0.00 0.00 0.00 78 1019.0
20181122095012 39 70 1.7 0.0 0.00 0.00 0.00 79 1019.0
20181122094012 38 70 1.7 2.6 0.00 0.00 0.00 79 1019.0
20181122093011 38 70 0.9 2.6 0.00 0.00 0.00 79 1018.0
20181122092032 38 70 0.0 0.0 0.00 0.00 0.00 79 1018.0
20181122091012 38 70 0.9 0.0 0.00 0.00 0.00 78 1018.0
20181122090010 38 70 0.9 4.3 0.00 0.00 0.00 78 1018.0
20181122085014 37 70 0.9 0.9 0.00 0.00 0.00 79 1018.0
20181122083012 37 70 0.0 0.0 0.00 0.00 0.00 79 1018.0
20181122082032 37 70 0.0 0.0 0.00 0.00 0.00 79 1018.0
20181122081034 37 70 0.9 0.0 0.00 0.00 0.00 79 1018.0
20181122080010 37 70 0.9 1.7 0.00 0.00 0.00 79 1018.0
20181122075012 37 70 0.0 1.7 0.00 0.00 0.00 78 1018.0
20181122073012 37 70 0.9 2.6 0.00 0.00 0.00 78 1018.0
20181122072011 37 70 0.0 2.6 0.00 0.00 0.00 78 1018.0
20181122071012 37 70 0.0 2.6 0.00 0.00 0.00 78 1018.0
20181122070031 37 70 0.0 0.0 0.00 0.00 0.00 78 1018.0
20181122065012 37 70 0.0 0.0 0.00 0.00 0.00 78 1018.0
20181122064033 37 70 0.0 0.0 0.00 0.00 0.00 78 1018.0
20181122063013 37 70 0.0 0.0 0.00 0.00 0.00 78 1018.0
20181122062011 37 70 0.0 0.0 0.00 0.00 0.00 78 1018.0
20181122061013 37 70 0.0 0.0 0.00 0.00 0.00 78 1018.0
20181122060011 37 70 0.0 1.7 0.00 0.00 0.00 78 1018.0
20181122055012 37 70 0.0 0.0 0.00 0.00 0.00 78 1018.0
20181122054015 37 70 0.0 1.7 0.00 0.00 0.00 78 1018.0
20181122053011 37 70 0.0 0.0 0.00 0.00 0.00 78 1018.0
20181122052033 37 70 0.9 2.6 0.00 0.00 0.00 78 1018.0
20181122051012 37 70 0.9 2.6 0.00 0.00 0.00 78 1018.0
20181122050010 37 70 0.0 1.7 0.00 0.00 0.00 77 1018.0
20181122045013 37 70 0.0 0.0 0.00 0.00 0.00 77 1018.0
20181122044012 36 70 1.7 0.9 0.00 0.00 0.00 77 1018.0
20181122043012 36 70 1.7 4.3 0.00 0.00 0.00 77 1018.0
20181122042013 36 70 0.9 4.3 0.00 0.00 0.00 77 1018.0
20181122041012 37 70 0.9 2.6 0.00 0.00 0.00 77 1018.0
20181122040031 37 70 0.9 1.7 0.00 0.00 0.00 76 1018.0
20181122035032 37 70 1.7 1.7 0.00 0.00 0.00 76 1018.0
20181122034037 37 70 1.7 4.3 0.00 0.00 0.00 76 1018.0
20181122033034 37 70 0.9 2.6 0.00 0.00 0.00 76 1018.0
20181122032011 37 70 0.9 0.9 0.00 0.00 0.00 76 1018.0
20181122031015 37 70 0.9 1.7 0.00 0.00 0.00 76 1018.0
20181122030011 37 70 0.0 0.9 0.00 0.00 0.00 75 1018.0
20181122025012 37 70 0.0 0.0 0.00 0.00 0.00 75 1018.0
20181122024033 37 70 0.0 0.0 0.00 0.00 0.00 75 1018.0
20181122023016 37 70 0.0 0.9 0.00 0.00 0.00 75 1018.0
20181122022013 37 70 0.0 0.0 0.00 0.00 0.00 75 1018.0
20181122021033 37 70 0.0 1.7 0.00 0.00 0.00 75 1018.0
20181122020010 38 70 0.9 0.0 0.00 0.00 0.00 74 1018.0
20181122015011 38 70 0.9 1.7 0.00 0.00 0.00 74 1018.0
20181122014013 38 70 0.0 1.7 0.00 0.00 0.00 74 1018.0
20181122013012 38 70 0.0 1.7 0.00 0.00 0.00 74 1018.0
20181122012015 38 70 0.0 0.0 0.00 0.00 0.00 73 1018.0
20181122010011 38 70 0.9 1.7 0.00 0.00 0.00 73 1018.0
20181122005013 38 70 0.9 2.6 0.00 0.00 0.00 73 1018.0
20181122004012 38 70 0.9 4.3 0.00 0.00 0.00 73 1018.0
20181122003012 38 70 0.0 0.9 0.00 0.00 0.00 73 1018.0
20181122002011 39 65 0.0 2.6 0.00 0.00 0.00 73 1018.0
20181122001034 39 70 0.9 0.0 0.00 0.00 0.00 73 1018.0
20181122000010 39 70 1.7 2.6 0.00 0.00 0.00 73 1018.0
20181121235012 39 60 2.6 4.3 0.00 0.00 0.00 73 1018.0
20181121234013 39 60 2.6 5.2 0.00 0.00 0.00 73 1018.0
20181121233013 39 60 4.3 6.1 0.00 0.00 0.00 73 1018.0
20181121232033 39 50 4.3 6.1 0.00 0.00 0.00 73 1018.0
20181121231011 39 55 3.5 6.1 0.00 0.00 0.00 73 1018.0
20181121230011 39 60 0.9 5.2 0.00 0.00 0.00 73 1018.0
20181121225012 39 60 0.9 0.0 0.00 0.00 0.00 73 1018.0
20181121224011 39 55 1.7 2.6 0.00 0.00 0.00 73 1018.0
20181121221012 40 30 0.9 2.6 0.00 0.00 0.00 71 1018.0
20181121220010 40 30 0.9 1.7 0.00 0.00 0.00 71 1018.0
20181121215012 40 30 0.9 1.7 0.00 0.00 0.00 71 1018.0
20181121214013 40 25 0.9 1.7 0.00 0.00 0.00 70 1018.0
20181121213013 40 30 0.9 2.6 0.00 0.00 0.00 70 1018.0
20181121212011 40 25 0.9 2.6 0.00 0.00 0.00 70 1018.0
20181121211012 40 10 0.9 1.7 0.00 0.00 0.00 70 1018.0
20181121210010 40 35 1.7 2.6 0.00 0.00 0.00 70 1018.0
20181121205014 40 35 1.7 2.6 0.00 0.00 0.00 70 1018.0
20181121204012 40 35 1.7 2.6 0.00 0.00 0.00 70 1018.0
20181121202034 40 35 0.0 2.6 0.00 0.00 0.00 70 1018.0
20181121201012 40 35 0.9 0.0 0.00 0.00 0.00 70 1018.0
20181121194013 41 35 0.0 0.9 0.00 0.00 0.00 70 1018.0
20181121193013 41 35 0.9 0.0 0.00 0.00 0.00 69 1018.0
20181121192012 41 35 0.9 1.7 0.00 0.00 0.00 69 1018.0
20181121191016 41 35 0.0 0.0 0.00 0.00 0.00 69 1018.0
20181121190010 41 35 0.0 0.0 0.00 0.00 0.00 69 1018.0
20181121185011 41 35 0.0 0.0 0.00 0.00 0.00 68 1017.0
20181121184012 42 35 0.0 1.7 0.00 0.00 0.00 68 1017.0
20181121183013 42 35 1.7 0.0 0.00 0.00 0.00 68 1017.0
20181121181012 42 35 1.7 2.6 0.00 0.00 0.00 68 1017.0
20181121180011 42 35 2.6 5.2 0.00 0.00 0.00 68 1017.0
20181121175012 42 35 4.3 5.2 0.00 0.00 0.00 68 1017.0
20181121173013 42 45 1.7 4.3 0.00 0.00 0.00 68 1017.0
20181121172012 42 45 1.7 2.6 0.00 0.00 0.00 68 1017.0
20181121171012 43 50 4.3 2.6 0.00 0.00 0.00 68 1017.0
20181121170010 43 40 1.7 6.1 0.00 0.00 0.00 68 1017.0
20181121165033 43 30 0.9 0.9 0.00 0.00 0.00 68 1017.0
20181121164012 43 40 1.7 4.3 0.00 0.00 0.00 68 1017.0
20181121163033 43 40 0.9 4.3 0.00 0.00 0.00 68 1016.0
20181121162032 43 35 0.0 2.6 0.00 0.00 0.00 68 1016.0
20181121161013 44 35 0.9 0.0 0.00 0.00 0.00 68 1016.0
20181121160010 44 35 0.9 1.7 0.00 0.00 0.00 68 1016.0
20181121155011 44 15 2.6 4.3 0.00 0.00 0.00 68 1016.0
20181121154013 44 15 3.5 4.3 0.00 0.00 0.00 68 1016.0
20181121152012 44 50 0.9 1.7 0.00 0.00 0.00 68 1016.0
20181121151033 44 50 1.7 2.6 0.00 0.00 0.00 68 1016.0
20181121150010 45 50 0.9 4.3 0.00 0.00 0.00 69 1016.0
20181121145011 45 50 0.9 0.0 0.00 0.00 0.00 68 1016.0
20181121144034 45 50 1.7 4.3 0.00 0.00 0.00 69 1016.0
20181121143013 45 35 0.9 2.6 0.00 0.00 0.00 69 1016.0
20181121142012 45 35 0.0 2.6 0.00 0.00 0.00 69 1016.0
20181121141011 45 35 0.9 2.6 0.00 0.00 0.00 70 1016.0
20181121140010 45 30 0.9 4.3 0.00 0.00 0.00 70 1016.0
20181121135033 45 30 1.7 5.2 0.00 0.00 0.00 71 1016.0
20181121134012 45 50 1.7 4.3 0.00 0.00 0.00 72 1016.0
20181121133013 45 30 1.7 4.3 0.00 0.00 0.00 73 1016.0
20181121132013 45 45 1.7 4.3 0.00 0.00 0.00 73 1016.0
20181121131012 45 20 1.7 4.3 0.00 0.00 0.00 73 1016.0
20181121125012 44 20 0.9 4.3 0.00 0.00 0.00 75 1016.0
20181121124012 44 50 0.0 4.3 0.00 0.00 0.00 76 1016.0
20181121123012 44 50 0.9 0.9 0.00 0.00 0.00 77 1016.0
20181121122033 44 50 0.9 0.9 0.00 0.00 0.00 77 1016.0
20181121121016 43 50 0.9 2.6 0.00 0.00 0.00 78 1016.0
20181121120031 43 50 1.7 1.7 0.00 0.00 0.00 78 1016.0
20181121115011 42 45 0.9 2.6 0.00 0.00 0.00 79 1016.0
20181121114013 42 65 0.0 0.0 0.00 0.00 0.00 79 1016.0